Theta_e
326 321 331 323 303 301 296 299 305 304 304 306 307 306 304 316 315 306 333 339 341 342 345 346 348 350 351 350 350 348 346 345 343 344 346 347 348 348 346 345 345 344 340 339 338 336 335 335 334
323 321 326 313 298 293 294 302 302 305 309 310 306 305 305 315 324 328 332 339 341 342 344 345 345 349 350 349 348 347 346 348 347 346 347 346 346 346 346 344 344 341 339 339 338 336 335 332 331
319 330 315 305 298 294 295 302 304 308 310 307 305 311 316 319 326 329 337 338 339 340 342 343 344 348 349 349 348 346 346 347 348 347 347 347 345 345 345 344 342 341 338 338 337 337 336 334 332
312 316 314 302 298 300 302 305 307 307 310 311 310 315 323 330 328 333 339 337 336 337 341 341 345 347 348 347 347 347 347 346 348 347 348 347 345 345 344 343 342 341 337 338 337 336 336 335 334
313 304 299 300 300 301 305 309 308 307 308 310 311 313 319 329 333 339 337 336 333 335 339 342 343 345 347 347 348 347 346 345 346 346 347 346 346 345 344 343 340 337 336 337 339 338 335 334 332
308 306 295 294 299 303 307 310 307 307 308 310 310 316 322 330 332 337 338 335 336 336 339 341 337 340 343 345 346 346 344 345 345 345 346 345 344 344 343 342 340 337 334 334 334 333 331 329 328
306 300 295 297 296 301 304 312 306 306 306 311 314 314 321 326 332 337 339 337 335 336 338 339 340 339 337 339 340 341 342 342 342 342 342 341 341 340 340 338 337 334 333 332 331 330 328 327 325
309 304 298 298 296 297 306 309 310 307 306 318 321 313 312 325 335 339 339 335 333 335 338 339 338 339 338 337 333 335 337 338 338 336 333 331 332 332 331 329 333 333 332 330 329 328 327 327 326
311 299 295 297 297 299 306 306 312 312 309 316 322 323 327 331 335 336 334 332 331 332 335 338 338 337 337 337 331 332 332 332 331 330 326 325 327 326 327 327 331 333 331 329 328 327 326 327 326
302 296 297 303 305 301 305 306 309 308 307 317 321 327 330 331 332 332 331 328 328 327 331 336 336 336 337 337 333 333 333 332 331 328 325 325 324 326 328 324 327 329 328 330 328 326 325 322 318
299 295 302 303 306 306 305 307 310 308 305 313 318 321 325 327 329 330 331 330 329 327 329 334 335 336 336 334 333 332 331 329 329 327 326 325 324 326 325 323 323 322 321 321 324 322 319 318 317
293 300 302 305 308 307 305 309 307 308 306 308 320 325 325 321 322 328 328 331 329 326 326 331 333 335 334 334 333 330 328 326 325 326 326 323 323 322 323 322 321 319 319 317 318 320 319 318 320
293 297 302 304 307 306 307 305 306 306 309 312 323 326 325 325 326 331 331 333 331 327 325 328 327 333 334 334 333 331 328 325 325 324 325 324 322 321 322 322 322 320 317 319 319 319 320 319 319
295 296 298 302 304 306 304 304 305 306 309 311 323 323 325 325 325 326 329 330 332 329 327 325 324 333 333 333 333 332 331 328 324 324 325 325 323 322 323 324 322 320 321 320 320 319 318 317 319
295 291 294 297 300 302 306 300 301 307 307 306 315 320 322 323 326 325 327 329 332 331 331 329 325 332 333 333 333 335 333 329 326 325 325 325 325 323 322 320 320 320 320 321 320 320 319 319 322
291 290 285 295 299 303 302 292 302 307 305 305 308 316 321 323 324 325 327 329 332 331 330 331 331 329 331 331 333 333 334 329 327 326 325 326 326 325 323 322 321 322 322 321 324 323 322 321 319
287 283 284 290 301 301 299 294 302 307 304 303 307 313 317 320 324 327 328 330 331 331 330 330 330 329 329 329 332 331 333 330 328 327 326 326 326 326 324 326 326 325 325 325 325 325 323 320 319
280 282 286 288 294 299 297 295 301 305 303 301 306 310 316 316 315 322 328 329 330 330 330 330 331 330 329 329 327 326 329 329 330 330 329 328 326 326 328 328 328 327 326 326 325 322 323 321 320
286 285 285 290 297 295 295 296 298 301 296 299 305 310 311 308 309 313 315 327 328 328 328 329 329 330 330 328 324 323 324 329 330 331 331 331 329 329 329 328 328 328 326 326 324 323 322 321 322
287 284 285 289 295 295 294 294 298 298 294 297 302 307 306 305 304 305 308 309 310 313 324 327 328 329 329 329 328 326 325 327 331 332 331 332 331 330 329 328 327 327 326 325 324 322 320 320 322
286 284 285 287 294 296 294 293 295 298 296 297 299 301 301 302 301 301 300 301 304 306 310 313 320 328 329 329 328 329 330 327 327 330 330 330 330 330 329 329 329 327 327 325 324 323 321 319 321
282 289 287 287 287 285 293 284 293 295 293 293 293 292 295 295 297 298 298 298 300 301 305 309 311 314 317 324 328 326 325 324 326 327 328 330 331 331 330 330 329 328 327 325 325 324 323 321 319
287 292 289 289 286 286 286 284 289 294 288 291 289 290 291 292 292 292 295 297 297 299 301 305 309 309 310 315 320 326 325 327 328 326 327 328 328 330 330 330 329 328 327 326 325 323 321 321 321
293 291 289 289 287 280 285 281 286 290 291 288 288 288 289 291 291 291 292 294 295 297 299 301 302 303 306 309 310 312 316 319 320 320 323 324 326 325 325 326 326 325 326 325 325 325 324 323 324
290 285 278 276 277 277 285 279 282 288 293 289 288 287 286 289 290 290 290 291 291 292 295 299 299 299 301 303 303 306 307 309 308 310 316 319 321 318 317 317 316 316 316 316 318 315 313 311 312
287 285 278 273 274 276 283 278 280 287 292 290 288 288 287 287 288 289 289 290 290 291 292 295 296 297 299 298 298 302 302 302 302 302 304 304 307 308 309 309 308 308 308 308 307 305 304 304 302
285 281 287 279 277 277 278 280 285 286 287 288 287 287 286 286 287 287 287 288 289 290 291 292 294 295 296 297 297 296 297 297 297 298 299 299 301 303 304 304 302 302 303 302 301 300 298 298 297
286 288 279 281 270 272 276 278 279 282 283 287 288 287 287 287 286 286 287 287 289 290 291 292 293 292 293 294 295 294 294 294 294 295 294 295 297 298 299 299 299 299 299 298 296 294 294 292 292
284 281 282 282 279 275 273 277 287 285 285 285 288 289 288 287 287 287 287 288 288 289 290 290 290 291 291 292 292 291 291 291 292 291 291 292 293 294 295 295 294 294 293 293 292 291 290 289 289
287 284 283 275 272 276 279 277 287 286 286 286 284 286 288 288 287 287 287 288 288 288 289 289 289 289 290 290 290 289 289 289 289 289 289 290 289 291 291 291 290 290 290 289 289 288 288 287 286
Wind_Speed
7 8 2 3 4 3 4 7 12 11 7 7 7 6 0 5 2 5 6 14 19 15 15 14 17 17 18 17 15 14 14 14 16 15 15 14 15 19 19 19 17 17 17 18 18 17 16 16 14
5 5 4 0 3 3 6 6 15 18 15 6 4 4 3 3 2 9 8 18 21 16 13 13 16 17 18 17 16 14 14 14 15 15 15 17 18 20 20 19 17 15 16 17 17 17 16 15 13
5 5 1 2 4 9 4 10 15 17 9 1 3 5 5 2 4 5 18 19 19 16 13 12 14 17 19 17 16 13 13 13 14 15 16 18 17 18 18 19 15 14 15 16 17 16 15 14 12
3 4 2 2 10 7 15 9 11 10 8 4 6 7 5 6 4 8 19 20 19 15 13 13 14 17 18 16 15 13 12 15 16 16 16 17 17 16 17 18 16 14 14 15 15 15 14 12 11
4 2 4 5 13 7 9 22 10 13 3 6 4 4 5 5 7 19 19 16 18 14 13 13 14 16 16 15 14 13 13 16 16 16 17 17 16 16 17 17 17 16 13 14 14 15 13 11 9
1 1 4 17 14 8 13 17 5 11 0 5 5 7 4 5 10 11 12 14 15 15 14 12 12 13 14 14 14 14 15 17 17 15 16 16 16 15 15 16 17 15 14 13 13 12 11 10 8
5 4 14 12 13 17 13 18 7 11 3 3 2 7 3 3 6 10 11 11 14 14 12 10 9 10 13 13 13 13 14 15 16 15 14 14 13 13 11 14 14 11 13 11 11 11 10 9 7
4 4 13 15 13 21 17 11 6 6 6 2 6 5 3 3 10 11 11 13 14 13 12 11 9 8 8 9 14 14 14 14 14 13 12 12 12 11 10 12 12 12 11 10 9 9 8 7 5
4 9 17 21 21 13 9 3 7 6 4 4 5 11 5 11 9 13 13 13 11 10 12 11 10 9 9 10 11 13 13 14 13 12 12 10 6 7 8 11 11 10 9 9 8 6 5 4 1
10 13 24 4 13 12 17 7 9 7 10 3 9 8 15 14 8 11 14 15 15 13 13 12 11 10 10 8 9 8 9 6 6 6 7 5 6 5 7 8 10 9 8 7 7 5 3 1 1
8 19 8 17 14 12 24 10 4 5 8 6 11 14 12 16 14 9 11 11 14 15 12 14 13 12 10 8 6 5 5 4 5 6 5 5 5 5 4 3 3 3 5 2 4 2 1 2 3
18 21 18 8 13 9 7 1 5 4 10 7 9 22 15 15 17 17 10 12 13 13 14 14 13 13 11 7 6 6 6 5 4 5 6 5 5 5 5 4 4 4 3 4 2 2 3 2 1
21 21 19 19 11 12 4 10 7 8 14 8 14 15 16 14 19 14 12 10 13 9 13 14 11 13 12 11 6 6 6 6 6 5 5 5 5 5 4 4 4 4 4 3 4 4 2 1 1
6 10 20 18 18 12 9 6 4 10 15 3 14 13 15 16 16 12 13 12 13 14 13 10 9 13 13 10 10 6 6 7 6 4 5 7 5 5 4 4 5 4 4 3 3 3 2 1 2
17 17 20 24 22 15 9 11 13 13 9 7 10 9 12 13 12 12 13 12 12 12 6 8 8 13 13 12 10 7 7 6 6 5 6 7 6 5 5 4 4 4 3 5 3 2 2 1 1
13 14 12 11 21 13 18 20 16 15 7 7 6 7 9 9 10 8 10 11 11 11 9 6 7 11 13 10 8 7 6 6 6 4 4 6 7 7 5 4 4 4 4 4 2 2 2 2 1
12 8 25 11 17 11 20 11 15 13 10 8 6 6 9 6 6 11 11 13 13 14 10 8 6 9 9 7 6 5 6 5 7 6 5 6 6 6 5 4 4 5 4 3 3 1 2 2 1
16 16 13 14 19 14 22 7 12 17 10 9 7 4 8 10 9 3 9 12 13 13 12 11 8 7 6 5 5 4 4 4 5 6 6 7 5 6 5 4 4 4 4 4 3 3 4 2 2
18 16 15 13 11 20 14 10 11 12 5 2 5 8 10 12 7 5 6 8 13 12 12 10 10 9 7 3 4 3 3 4 4 4 8 7 7 6 5 4 4 4 4 5 4 3 3 1 2
17 10 10 4 11 22 19 12 6 9 8 4 5 9 8 10 10 8 9 11 11 9 6 11 11 10 8 5 3 3 4 2 5 4 6 7 8 7 6 6 5 5 4 5 5 4 2 2 3
11 11 6 5 10 6 21 10 9 6 6 10 12 12 13 9 8 4 7 9 11 11 9 8 5 6 6 5 4 2 4 3 2 3 3 4 8 7 6 7 6 6 5 5 5 5 5 3 3
14 16 6 8 6 10 5 6 9 8 6 8 8 9 10 9 8 1 9 10 10 10 8 8 8 8 7 3 5 5 4 4 4 4 3 4 8 9 9 8 6 5 4 5 5 5 4 4 3
6 15 14 11 3 4 3 6 6 13 8 10 7 8 9 10 9 9 9 9 12 9 8 6 8 9 8 6 5 1 2 1 3 3 5 7 6 5 5 5 6 5 4 4 5 3 3 3 3
6 9 9 7 4 1 6 5 7 8 7 8 7 8 8 9 9 9 8 9 9 10 9 6 9 9 9 8 8 7 7 4 3 3 3 2 3 5 4 3 1 1 2 2 2 4 5 4 5
7 1 3 4 3 3 3 9 3 6 6 12 12 8 10 9 5 10 8 8 8 10 13 7 8 11 11 9 8 7 8 7 7 4 2 3 2 3 3 4 4 3 4 4 3 4 5 4 3
2 2 3 4 4 2 2 4 3 5 7 12 12 9 11 10 8 7 8 8 7 10 10 8 9 12 11 9 8 7 8 5 4 5 4 4 4 6 5 5 5 6 5 6 6 6 5 6 5
2 2 3 7 2 5 3 4 4 6 7 9 9 9 11 9 7 7 8 8 7 10 12 10 11 10 12 6 8 8 8 8 6 6 6 5 5 5 5 6 7 7 7 7 7 6 6 6 6
6 4 3 5 3 4 4 4 3 4 6 7 8 10 9 6 6 6 7 8 6 7 6 8 9 9 9 7 7 8 7 8 6 5 8 7 6 7 8 8 8 7 6 7 7 6 7 8 5
6 4 5 6 2 4 5 2 5 3 7 8 8 8 8 7 5 4 5 6 5 6 3 6 5 3 7 3 6 8 6 9 6 8 9 7 7 8 7 7 7 7 7 8 8 8 8 9 7
4 6 4 5 5 3 4 3 4 6 7 10 10 9 6 6 6 5 5 4 4 4 4 6 4 6 4 5 8 8 11 10 9 6 8 7 7 7 7 6 7 7 7 8 9 8 8 9 8
Wind_Direction
331 322 335 21 76 90 224 231 260 288 304 229 210 120 154 72 57 178 130 124 127 136 143 146 143 145 142 138 133 133 132 131 127 125 121 117 127 127 122 112 107 103 104 104 100 98 96 93 91
311 314 11 8 126 205 240 234 242 254 250 301 353 97 13 82 85 127 104 139 132 137 143 146 141 140 138 134 135 137 139 136 130 130 120 113 113 116 111 107 98 102 103 106 105 103 97 93 89
316 14 35 157 193 215 239 213 240 253 255 90 118 63 73 88 77 138 134 135 131 138 142 145 139 142 135 137 139 143 141 139 137 131 128 119 114 113 113 101 102 107 106 110 106 102 99 94 87
36 5 262 229 243 238 245 260 233 272 225 205 153 88 59 338 123 125 132 134 133 140 140 142 142 138 135 138 139 145 142 139 133 132 124 120 117 111 104 108 108 99 106 112 109 103 101 95 88
43 66 222 234 237 265 259 251 259 280 197 210 135 144 82 8 1 129 135 139 135 136 140 141 140 139 140 139 147 145 141 136 124 120 122 122 119 117 113 112 110 106 103 103 101 105 102 97 86
139 138 206 229 229 259 265 261 252 275 305 235 128 109 130 147 85 137 141 142 125 135 142 142 137 139 144 142 145 135 139 131 121 117 116 118 122 119 122 125 118 111 109 105 103 102 101 94 82
221 183 229 248 219 230 247 268 261 235 268 247 104 113 145 192 132 151 145 134 128 132 135 131 135 138 132 133 133 133 132 123 119 117 115 113 113 110 121 105 99 109 108 110 106 104 102 97 85
235 232 230 219 210 229 235 278 261 254 251 161 157 128 223 201 127 126 132 132 129 133 135 135 130 128 128 132 124 124 123 118 116 114 110 106 109 107 93 93 104 111 121 117 114 112 108 105 104
204 218 235 222 215 220 250 317 290 268 209 98 50 109 195 131 130 119 140 133 136 141 141 137 136 131 126 124 121 117 122 122 121 120 122 112 119 106 95 105 117 121 124 126 123 124 127 127 124
245 230 228 210 226 219 244 229 305 340 329 35 90 110 125 135 125 146 160 156 149 154 152 147 143 138 137 132 127 124 127 130 130 135 144 132 121 123 120 122 128 134 140 143 148 162 155 109 293
236 248 254 239 237 213 230 216 229 331 316 207 162 163 161 155 133 222 174 172 159 160 154 154 151 145 143 140 135 134 135 133 141 154 155 136 122 125 127 126 132 143 157 180 175 159 192 223 182
252 255 245 283 221 193 224 126 234 232 248 293 213 168 174 167 163 206 174 159 169 164 153 158 156 149 146 147 148 148 147 143 153 168 159 134 135 142 149 149 164 167 177 194 208 188 199 146 2
258 258 260 248 242 238 178 236 206 245 268 270 165 159 165 170 159 167 160 158 157 158 155 169 149 150 147 152 148 158 155 154 163 162 160 159 145 154 154 169 172 180 170 199 192 179 157 187 250
252 248 277 251 240 212 189 215 157 221 272 141 151 175 166 178 183 145 154 160 160 158 161 170 148 149 146 154 153 158 161 156 153 157 168 150 154 155 185 172 175 195 177 162 141 138 138 162 193
254 256 271 266 242 216 174 245 232 244 273 243 143 164 163 176 164 164 157 169 155 156 149 147 146 142 141 150 157 157 163 149 154 165 166 157 165 170 153 145 153 166 142 132 116 130 93 138 193
245 231 253 239 214 214 176 233 232 240 281 249 158 157 161 164 170 168 162 174 157 142 149 143 133 138 141 145 153 153 157 151 152 159 163 163 166 159 164 153 164 157 144 147 188 156 148 169 77
220 238 231 283 200 187 189 202 207 215 275 236 220 152 152 134 142 176 167 167 162 152 153 139 139 132 131 142 146 134 162 155 160 158 166 171 165 166 173 166 177 163 162 168 170 169 162 192 213
199 228 238 220 194 191 187 145 162 171 252 239 191 52 154 103 20 20 166 150 141 144 147 155 150 144 140 136 141 139 151 168 143 158 172 171 174 179 179 167 162 157 158 164 159 175 202 193 232
186 238 209 247 223 198 180 138 154 159 73 72 156 104 118 93 46 6 57 159 138 143 142 155 153 164 169 143 157 150 170 155 132 161 171 175 178 182 157 152 145 155 168 177 180 175 196 243 229
240 256 212 286 217 185 170 170 138 117 107 60 110 109 99 89 37 13 57 85 70 67 126 152 162 163 182 167 151 155 156 169 172 167 180 180 173 180 171 170 179 175 165 183 186 179 170 223 188
227 227 202 188 138 171 154 180 146 95 103 91 74 80 68 85 81 320 79 34 66 58 49 61 71 156 165 157 138 125 121 96 132 171 181 189 180 183 182 189 188 185 178 194 189 186 186 205 229
220 207 216 173 188 151 192 147 144 150 134 117 108 92 95 74 68 349 48 32 38 46 32 53 55 58 44 31 157 161 167 155 185 190 202 206 189 188 193 196 185 178 190 192 195 194 195 180 218
253 183 203 171 83 103 141 127 128 139 146 150 121 108 101 93 74 31 34 43 32 35 37 29 63 52 36 44 34 166 185 169 48 33 241 208 191 159 152 179 188 189 193 207 200 193 209 210 192
134 161 171 105 123 150 156 131 151 170 160 126 102 101 98 97 102 71 42 36 41 28 37 21 61 51 50 40 40 56 60 68 76 36 27 88 84 88 78 40 352 241 207 253 226 208 215 227 223
145 198 91 66 44 55 142 59 57 33 105 139 132 123 103 101 88 86 50 50 34 33 44 15 45 59 51 42 46 50 66 66 68 42 11 50 128 62 53 67 47 51 51 58 58 71 65 42 42
146 84 81 111 132 94 281 94 86 79 59 99 87 95 89 85 80 89 86 61 59 50 52 26 33 56 58 52 43 49 55 65 58 50 47 47 58 55 30 66 67 57 57 64 65 68 65 60 64
134 51 224 104 43 81 95 60 75 108 86 115 120 102 83 73 70 87 80 59 29 48 43 21 31 42 47 58 57 52 57 59 54 52 59 49 40 69 55 65 69 61 59 62 76 72 73 71 65
118 148 114 29 87 90 65 78 98 163 145 145 163 127 119 110 96 78 71 71 53 63 56 56 41 35 51 49 62 59 63 75 65 54 75 52 38 52 58 57 55 61 64 75 76 84 76 84 64
7 33 44 108 89 129 122 60 348 77 157 155 157 139 148 148 139 104 90 73 67 66 51 83 93 70 66 76 85 91 81 71 71 61 58 54 47 49 55 64 72 73 69 80 91 85 89 89 82
8 22 50 95 307 35 75 83 29 74 108 112 99 111 134 133 134 120 102 107 96 92 70 67 44 56 71 68 76 65 56 53 53 48 66 68 60 57 69 71 74 72 76 75 77 80 74 79 73